Change the Weather History Date:

Saturday, February 15, 2014

  Actual Average Record
Temperature  
Mean Temperature 53 °F -  
Max Temperature 62 °F 57 °F 66 °F (1997)
Min Temperature 44 °F 41 °F 26 °F (2004)
Degree Days  
Heating Degree Days 12    
Growing Degree Days 3 (Base 50)    
Moisture  
Dew Point 41 °F    
Average Humidity 65    
Maximum Humidity 82    
Minimum Humidity 45    
Precipitation  
Precipitation 0.00 in - - ()
Sea Level Pressure  
Sea Level Pressure 30.01 in    
Wind  
Wind Speed 5 mph ()    
Max Wind Speed 15 mph    
Max Gust Speed 25 mph    
Visibility 6.2 miles    
Events      
Averages and records for this station are not official NWS values.
T = Trace of Precipitation, MM = Missing Value Source: Averaged Metar Reports

Daily Weather History Graph

Daily Weather History Graph

Search for Another Location

Airport or City:

Trip Planner

Search our weather history database for the weather conditions in past years. The results will help you decide how hot, cold, wet, or windy it might be!

Date:

Astronomy

Feb. 15, 2014 Rise Set
Actual Time 7:16 AM EET 6:04 PM EET
Civil Twilight 6:49 AM EET 6:31 PM EET
Nautical Twilight 6:18 AM EET 7:02 PM EET
Astronomical Twilight 5:47 AM EET 7:32 PM EET
Moon 6:45 PM EET (2/15) 7:06 AM EET (2/15)
Length of Visible Light 11h 41m
Length of Day
10h 47m
Full, 100% of the Moon is Illuminated
Feb 15
Full
Feb 22
Last Quarter
Mar 1
New
Mar 8
First Quarter
Mar 16
Full

Hourly Weather History & Observations

Time (EET) Temp. Windchill Dew Point Humidity Pressure Visibility Wind Dir Wind Speed Gust Speed Precip Events Conditions
12:50 AM 46.4 °F 42.9 °F 41.0 °F 81% 29.83 in 6.2 mi NW 6.9 mph - N/A   Partly Cloudy
1:50 AM 46.4 °F 44.3 °F 39.2 °F 76% 29.86 in 6.2 mi NW 4.6 mph - N/A   Partly Cloudy
2:50 AM 44.6 °F - 39.2 °F 81% 29.86 in 6.2 mi Calm Calm - N/A   Partly Cloudy
3:50 AM 44.6 °F - 39.2 °F 81% 29.86 in 6.2 mi Calm Calm - N/A   Partly Cloudy
4:50 AM 44.6 °F - 37.4 °F 76% 29.89 in 6.2 mi Calm Calm - N/A   Partly Cloudy
5:20 AM 44.6 °F - 37.4 °F 76% 29.89 in 6.2 mi Calm Calm - N/A   Partly Cloudy
5:50 AM 48.2 °F - 37.4 °F 66% 29.92 in 6.2 mi Calm Calm - N/A   Partly Cloudy
6:20 AM - - - N/A% 29.92 in 6.2 mi Calm Calm - N/A   Partly Cloudy
6:50 AM 44.6 °F 39.7 °F 37.4 °F 76% 29.92 in 6.2 mi North 9.2 mph - N/A   Partly Cloudy
7:20 AM 46.4 °F 43.5 °F 37.4 °F 71% 29.92 in 6.2 mi NNW 5.8 mph - N/A   Partly Cloudy
7:50 AM 50.0 °F - 39.2 °F 66% 29.95 in 6.2 mi North 5.8 mph - N/A   Partly Cloudy
8:50 AM 53.6 °F - 39.2 °F 58% 29.98 in 6.2 mi NNW 6.9 mph - N/A   Partly Cloudy
9:20 AM 55.4 °F - 39.2 °F 54% 29.98 in 6.2 mi NNW 11.5 mph - N/A   Partly Cloudy
9:50 AM 57.2 °F - 39.2 °F 51% 29.98 in 6.2 mi NNW 15.0 mph - N/A   Partly Cloudy
10:20 AM 57.2 °F - 39.2 °F 51% 30.01 in 6.2 mi NNW 13.8 mph 25.3 mph N/A   Partly Cloudy
10:50 AM 59.0 °F - 39.2 °F 48% 30.01 in 6.2 mi NNW 8.1 mph - N/A   Scattered Clouds
11:20 AM 59.0 °F - 41.0 °F 51% 30.01 in 6.2 mi North 6.9 mph - N/A   Scattered Clouds
11:50 AM 60.8 °F - 41.0 °F 48% 30.01 in 6.2 mi North 10.4 mph - N/A   Scattered Clouds
12:20 PM 60.8 °F - 41.0 °F 48% 30.01 in 6.2 mi NNW 13.8 mph - N/A   Scattered Clouds
12:50 PM 62.6 °F - 41.0 °F 45% 30.01 in 6.2 mi NNW 11.5 mph - N/A   Scattered Clouds
1:20 PM 60.8 °F - 42.8 °F 52% 30.04 in 6.2 mi North 11.5 mph - N/A   Scattered Clouds
1:50 PM 62.6 °F - 42.8 °F 48% 30.04 in 6.2 mi North 10.4 mph - N/A   Scattered Clouds
2:20 PM 59.0 °F - 42.8 °F 55% 30.04 in 6.2 mi North 10.4 mph - N/A   Scattered Clouds
2:50 PM 59.0 °F - 42.8 °F 55% 30.04 in 6.2 mi North 9.2 mph - N/A   Scattered Clouds
3:20 PM 57.2 °F - 42.8 °F 59% 30.04 in 6.2 mi North 10.4 mph - N/A   Scattered Clouds
3:50 PM 59.0 °F - 42.8 °F 55% 30.04 in 6.2 mi North 8.1 mph - N/A   Scattered Clouds
4:20 PM 59.0 °F - 42.8 °F 55% 30.04 in 6.2 mi NNE 5.8 mph - N/A   Scattered Clouds
4:50 PM 59.0 °F - 42.8 °F 55% 30.04 in 6.2 mi North 6.9 mph - N/A   Scattered Clouds
5:20 PM 57.2 °F - 42.8 °F 59% 30.06 in 6.2 mi North 4.6 mph - N/A   Partly Cloudy
5:50 PM 55.4 °F - 42.8 °F 63% 30.06 in 6.2 mi Calm Calm - N/A   Partly Cloudy
6:20 PM 53.6 °F - 42.8 °F 67% 30.06 in 6.2 mi Calm Calm - N/A   Partly Cloudy
6:50 PM 51.8 °F - 42.8 °F 71% 30.09 in 6.2 mi Calm Calm - N/A   Partly Cloudy
7:20 PM 48.2 °F - 42.8 °F 82% 30.09 in 6.2 mi Calm Calm - N/A   Partly Cloudy
7:50 PM 51.8 °F - 41.0 °F 67% 30.09 in - Calm Calm - N/A   Clear
8:20 PM 48.2 °F - 42.8 °F 82% 30.09 in - Calm Calm - N/A   Clear
8:50 PM 48.2 °F - 41.0 °F 76% 30.12 in - Calm Calm - N/A   Clear
9:20 PM 50.0 °F - 41.0 °F 71% 30.12 in - Calm Calm - N/A   Clear
9:50 PM 46.4 °F - 39.2 °F 76% 30.12 in - Calm Calm - N/A   Clear
10:20 PM 44.6 °F - 39.2 °F 81% 30.12 in - Calm Calm - N/A   Clear
10:50 PM 44.6 °F - 39.2 °F 81% 30.12 in - Calm Calm - N/A   Clear
11:50 PM 46.4 °F - 39.2 °F 76% 30.15 in - Calm Calm - N/A   Clear